This is the latest recevied weather packets stored in our database for station/object N2UFM. If no packets are shown the sender has not sent any weather packets the latest 10 day(s).
| Time | Temp. | Humidity | Pressure | Rain* | Wind** | Luminosity | Snow |
|---|---|---|---|---|---|---|---|
| 1777496043 | 12.22° C | 81% | 1013 hPa | 0 mm | - | - | - |
| 1777495743 | 12.22° C | 81% | 1013 hPa | 0 mm | - | - | - |
| 1777495443 | 12.22° C | 80% | 1013 hPa | 0 mm | - | - | - |
| 1777495142 | 12.78° C | 79% | 1013.1 hPa | 0 mm | - | - | - |
| 1777494842 | 12.78° C | 79% | 1013.1 hPa | 0 mm | - | - | - |
| 1777494542 | 12.78° C | 80% | 1013.3 hPa | 0 mm | - | - | - |
| 1777494242 | 12.78° C | 80% | 1013.5 hPa | 0 mm | - | - | - |
| 1777493942 | 12.78° C | 79% | 1013.6 hPa | 0 mm | - | - | - |
| 1777493642 | 12.78° C | 78% | 1013.4 hPa | 0 mm | - | - | - |
| 1777493341 | 12.78° C | 78% | 1013.4 hPa | 0 mm | - | - | - |
| 1777493041 | 12.78° C | 78% | 1013.5 hPa | 0 mm | - | - | - |
| 1777492741 | 13.33° C | 77% | 1013.4 hPa | 0 mm | - | - | - |
| 1777492441 | 13.33° C | 76% | 1013.6 hPa | 0 mm | - | - | - |
| 1777492141 | 13.33° C | 76% | 1013.5 hPa | 0 mm | - | - | - |
| 1777491841 | 13.33° C | 75% | 1013.4 hPa | 0 mm | - | - | - |
| 1777491541 | 13.89° C | 76% | 1013.6 hPa | 0 mm | - | - | - |
| 1777491240 | 13.89° C | 75% | 1013.7 hPa | 0 mm | - | - | - |
| 1777490940 | 14.44° C | 74% | 1013.8 hPa | 0 mm | - | - | - |
| 1777490640 | 14.44° C | 74% | 1014.2 hPa | 0 mm | - | - | - |
| 1777490340 | 14.44° C | 73% | 1014.5 hPa | 0 mm | - | - | - |
| 1777490040 | 15° C | 72% | 1014.5 hPa | 0 mm | - | - | - |
| 1777489740 | 14.44° C | 73% | 1014.2 hPa | 0 mm | - | - | - |
| 1777489439 | 15° C | 72% | 1014.4 hPa | 0 mm | - | - | - |
| 1777489139 | 15° C | 73% | 1014.5 hPa | 0 mm | - | - | - |
| 1777488839 | 14.44° C | 75% | 1014.7 hPa | 0 mm | - | - | - |
* Rain latest hour (hover to see other rain measurements)
** Current wind speed in m/s (hover to see current wind gust speed)